Terug naar catalogus

OPS 6182

DMSP 5D-1 F3

ActiefWeerSSO
NORAD 10820·PAYLOAD·🇺🇸 United States

Gelanceerd May 1, 1978 vanaf Vandenberg Space Force Base

Loading…

Volgende Passages (komende 24 uur)

TLE

VersSource: Space-Track

Epoch: Sep 14, 2026, 12:46 UTC

1 10820U 78042A   26257.53206268  .00000242  00000-0  94044-4 0  9999
2 10820  98.4462  90.8823 0010501  81.4176 278.8201 14.38138530525859

Volg OPS 6182 in realtime met AllMySat

Download on the App Store